Copper Harbor, MI

3:25 AM EST on February 09, 2016 (GMT -0500)
Copper Harbor

Weather History for KP59 - December, 2012

Change the Weather History Date:

Wednesday, December 19, 2012

  Actual Average Record
Temperature  
Mean Temperature 31 °F -  
Max Temperature 34 °F 27 °F 43 °F (2002)
Min Temperature 28 °F 18 °F 1 °F (2004)
Degree Days  
Heating Degree Days 34    
Moisture  
Dew Point 26 °F    
Average Humidity 80    
Maximum Humidity 85    
Minimum Humidity 70    
Precipitation  
Precipitation 0.00 in - - ()
Sea Level Pressure  
Sea Level Pressure 29.96 in    
Wind  
Wind Speed 4 mph (WSW)    
Max Wind Speed 7 mph    
Max Gust Speed -    
Averages and records for this station are not official NWS values.
T = Trace of Precipitation, MM = Missing Value Source: NWS Daily Summary

Daily Weather History Graph

Daily Weather History Graph

Search for Another Location

Airport or City:

Trip Planner

Search our weather history database for the weather conditions in past years. The results will help you decide how hot, cold, wet, or windy it might be!

Date:

Astronomy

Dec. 19, 2012 Rise Set
Actual Time 8:35 AM EST 5:02 PM EST
Civil Twilight 7:59 AM EST 5:38 PM EST
Nautical Twilight 7:20 AM EST 6:17 PM EST
Astronomical Twilight 6:42 AM EST 6:55 PM EST
Moon 12:17 PM EST (12/19) No Moon Set
Length of Visible Light 9h 38m
Length of Day
8h 26m
Waxing Crescent, 45% of the Moon is Illuminated
Dec 19
Waxing Crescent
Dec 20
First Quarter
Dec 28
Full
Jan 4
Last Quarter
Jan 11
New

Hourly Weather History & Observations

Time (EST) Temp. Windchill Dew Point Humidity Pressure Visibility Wind Dir Wind Speed Gust Speed Precip Events Conditions
12:51 AM 28.9 °F 23.9 °F 24.1 °F 82% 29.82 in - WSW 4.6 mph - N/A   Unknown
1:51 AM 28.9 °F 25.2 °F 24.1 °F 82% 29.83 in - WSW 3.5 mph - N/A   Unknown
2:51 AM 28.9 °F 25.2 °F 25.0 °F 85% 29.86 in - WSW 3.5 mph - N/A   Unknown
3:51 AM 28.9 °F 23.9 °F 24.1 °F 82% 29.86 in - WSW 4.6 mph - N/A   Unknown
4:51 AM 28.9 °F 25.2 °F 25.0 °F 85% 29.88 in - WSW 3.5 mph - N/A   Unknown
5:51 AM 30.0 °F 26.5 °F 26.1 °F 85% 29.88 in - West 3.5 mph - N/A   Unknown
6:51 AM 30.0 °F 26.5 °F 26.1 °F 85% 29.90 in - West 3.5 mph - N/A   Unknown
7:51 AM 30.0 °F 26.5 °F 26.1 °F 85% 29.92 in - WSW 3.5 mph - N/A   Unknown
8:51 AM 30.9 °F 27.5 °F 26.1 °F 82% 29.93 in - SW 3.5 mph - N/A   Unknown
9:51 AM 30.9 °F 27.5 °F 27.0 °F 85% 29.95 in - WSW 3.5 mph - N/A   Unknown
10:51 AM 33.1 °F 27.7 °F 26.1 °F 75% 29.97 in - SW 5.8 mph - N/A   Unknown
11:51 AM 34.0 °F 29.8 °F 26.1 °F 73% 29.97 in - SW 4.6 mph - N/A   Unknown
12:51 PM 34.0 °F 28.0 °F 27.0 °F 75% 29.97 in - WSW 6.9 mph - N/A   Unknown
1:51 PM 33.1 °F 28.7 °F 25.0 °F 72% 29.98 in - WSW 4.6 mph - N/A   Unknown
2:51 PM 33.1 °F 28.7 °F 25.0 °F 72% 29.98 in - Variable 4.6 mph - N/A   Unknown
3:51 PM 34.0 °F 31.0 °F 25.0 °F 70% 29.98 in - WSW 3.5 mph - N/A   Unknown
4:51 PM 30.9 °F 27.5 °F 25.0 °F 79% 30.02 in - WSW 3.5 mph - N/A   Unknown
5:51 PM 32.0 °F - 26.1 °F 79% 30.04 in - Calm Calm - N/A   Unknown
6:51 PM 32.0 °F - 26.1 °F 79% 30.04 in - Calm Calm - N/A   Unknown
7:51 PM 32.0 °F 27.5 °F 25.0 °F 75% 30.04 in - NW 4.6 mph - N/A   Unknown
8:51 PM 30.9 °F 25.2 °F 26.1 °F 82% 30.03 in - SW 5.8 mph - N/A   Unknown
9:51 PM 30.9 °F 25.2 °F 26.1 °F 82% 30.04 in - WSW 5.8 mph - N/A   Unknown
10:51 PM 30.9 °F 27.5 °F 26.1 °F 82% 30.04 in - WSW 3.5 mph - N/A   Unknown
11:51 PM 30.9 °F 25.2 °F 26.1 °F 82% 30.06 in - WSW 5.8 mph - N/A   Unknown